Total_Precipitation_Accumulation
0.07 0.08 0.09 0.10 0.10 0.09 0.15 0.10 0.13 0.08 0.09 0.11 0.09 0.09 0.08 0.09 0.09 0.08 0.09 0.09 0.09 0.10 0.16 0.18 0.19 0.18 0.17 0.19 0.24 0.24 0.21 0.22 0.21 0.22 0.25 0.27 0.31 0.37 0.35 0.38 0.60 0.60 0.38 0.12 0.04 0.02 0.01 0.01 0.02 0.05 0.09 0.15 0.22 0.24 0.23 0.14 0.13 0.14 0.13 0.17 0.22 0.28 0.31
0.09 0.09 0.10 0.11 0.11 0.10 0.10 0.16 0.13 0.10 0.11 0.11 0.10 0.10 0.12 0.14 0.17 0.12 0.12 0.10 0.11 0.10 0.12 0.17 0.20 0.18 0.16 0.18 0.26 0.29 0.29 0.28 0.24 0.28 0.28 0.25 0.28 0.33 0.33 0.29 0.41 0.49 0.40 0.25 0.08 0.04 0.02 0.02 0.01 0.04 0.05 0.10 0.13 0.19 0.25 0.25 0.20 0.17 0.17 0.17 0.21 0.25 0.24
0.12 0.12 0.13 0.13 0.11 0.12 0.14 0.15 0.16 0.13 0.17 0.19 0.18 0.16 0.14 0.14 0.14 0.14 0.14 0.13 0.13 0.12 0.13 0.16 0.20 0.21 0.19 0.19 0.29 0.31 0.34 0.32 0.33 0.31 0.29 0.29 0.22 0.22 0.20 0.23 0.32 0.44 0.42 0.29 0.18 0.08 0.06 0.04 0.03 0.04 0.06 0.08 0.12 0.15 0.14 0.23 0.27 0.26 0.25 0.24 0.24 0.24 0.23
0.10 0.12 0.12 0.14 0.15 0.19 0.14 0.15 0.13 0.16 0.19 0.20 0.18 0.21 0.24 0.20 0.18 0.18 0.19 0.21 0.19 0.18 0.20 0.21 0.23 0.23 0.23 0.27 0.29 0.30 0.31 0.34 0.35 0.36 0.36 0.32 0.27 0.25 0.20 0.16 0.17 0.25 0.35 0.30 0.27 0.16 0.11 0.06 0.06 0.06 0.06 0.06 0.08 0.13 0.19 0.20 0.27 0.29 0.30 0.27 0.30 0.25 0.28
0.11 0.13 0.14 0.14 0.13 0.12 0.11 0.12 0.12 0.13 0.14 0.15 0.16 0.19 0.21 0.22 0.23 0.23 0.23 0.23 0.25 0.29 0.30 0.29 0.28 0.26 0.25 0.27 0.34 0.35 0.37 0.38 0.39 0.42 0.43 0.43 0.37 0.36 0.31 0.27 0.26 0.27 0.29 0.40 0.35 0.25 0.14 0.09 0.08 0.08 0.08 0.08 0.11 0.14 0.19 0.23 0.27 0.31 0.35 0.34 0.33 0.29 0.27
0.15 0.15 0.14 0.14 0.14 0.13 0.16 0.14 0.14 0.14 0.17 0.14 0.13 0.14 0.15 0.17 0.18 0.18 0.20 0.22 0.24 0.25 0.28 0.31 0.31 0.29 0.30 0.31 0.36 0.39 0.36 0.41 0.48 0.51 0.49 0.49 0.51 0.53 0.48 0.46 0.44 0.41 0.43 0.44 0.42 0.34 0.25 0.15 0.13 0.13 0.13 0.12 0.14 0.15 0.18 0.26 0.30 0.30 0.36 0.42 0.45 0.43 0.35
0.17 0.16 0.16 0.16 0.16 0.16 0.16 0.15 0.14 0.14 0.14 0.14 0.14 0.16 0.16 0.16 0.16 0.16 0.16 0.17 0.18 0.18 0.21 0.24 0.26 0.27 0.27 0.31 0.34 0.36 0.35 0.36 0.37 0.47 0.52 0.54 0.55 0.54 0.59 0.71 0.74 0.67 0.60 0.58 0.57 0.55 0.38 0.31 0.27 0.19 0.21 0.14 0.12 0.13 0.15 0.21 0.28 0.36 0.35 0.38 0.38 0.40 0.38
0.19 0.18 0.17 0.19 0.19 0.17 0.16 0.17 0.17 0.16 0.15 0.15 0.15 0.16 0.18 0.17 0.20 0.21 0.20 0.19 0.17 0.17 0.19 0.19 0.20 0.22 0.21 0.22 0.24 0.27 0.27 0.29 0.36 0.42 0.50 0.49 0.51 0.58 0.71 0.78 0.78 0.75 0.75 0.75 0.71 0.62 0.53 0.42 0.33 0.27 0.22 0.22 0.22 0.24 0.24 0.22 0.25 0.32 0.33 0.36 0.38 0.37 0.37
0.22 0.22 0.23 0.20 0.20 0.21 0.19 0.20 0.19 0.18 0.18 0.20 0.20 0.22 0.26 0.25 0.28 0.27 0.27 0.25 0.23 0.22 0.20 0.19 0.19 0.19 0.22 0.19 0.19 0.21 0.23 0.26 0.32 0.41 0.50 0.50 0.51 0.61 0.72 0.78 0.78 0.81 0.83 0.82 0.76 0.70 0.52 0.47 0.39 0.34 0.30 0.28 0.28 0.30 0.29 0.22 0.22 0.29 0.28 0.28 0.30 0.35 0.38
0.24 0.27 0.36 0.25 0.24 0.23 0.25 0.24 0.22 0.20 0.21 0.27 0.38 0.47 0.51 0.54 0.52 0.48 0.47 0.45 0.40 0.34 0.28 0.25 0.23 0.20 0.17 0.18 0.19 0.22 0.25 0.31 0.35 0.38 0.45 0.54 0.57 0.62 0.73 0.80 0.84 0.82 0.75 0.75 0.81 0.70 0.57 0.57 0.47 0.36 0.29 0.26 0.22 0.18 0.15 0.16 0.20 0.24 0.24 0.23 0.29 0.31 0.37
0.34 0.33 0.32 0.31 0.32 0.35 0.33 0.31 0.26 0.24 0.33 0.55 0.75 0.78 0.82 0.76 0.66 0.56 0.52 0.47 0.43 0.37 0.29 0.24 0.21 0.20 0.19 0.19 0.21 0.23 0.26 0.31 0.33 0.40 0.46 0.47 0.52 0.64 0.78 0.92 0.96 0.88 0.76 0.77 0.74 0.65 0.55 0.51 0.43 0.32 0.28 0.26 0.22 0.18 0.18 0.20 0.22 0.26 0.29 0.34 0.37 0.43 0.37
0.41 0.34 0.32 0.33 0.34 0.37 0.36 0.37 0.31 0.36 0.57 0.73 0.98 1.24 1.11 0.96 0.82 0.69 0.60 0.53 0.48 0.43 0.37 0.33 0.30 0.27 0.25 0.25 0.25 0.26 0.27 0.32 0.36 0.41 0.43 0.49 0.56 0.65 0.79 0.95 0.92 0.95 0.90 0.76 0.77 0.74 0.62 0.57 0.45 0.29 0.24 0.23 0.24 0.26 0.23 0.25 0.27 0.34 0.39 0.40 0.40 0.37 0.36
0.39 0.39 0.40 0.40 0.46 0.41 0.40 0.39 0.36 0.46 0.68 0.82 1.13 1.43 1.51 1.18 0.95 0.80 0.64 0.52 0.46 0.42 0.38 0.35 0.38 0.35 0.32 0.28 0.25 0.27 0.28 0.29 0.31 0.33 0.38 0.45 0.50 0.54 0.70 0.93 1.19 1.10 0.90 0.95 0.93 0.88 0.70 0.50 0.44 0.44 0.31 0.21 0.23 0.30 0.36 0.34 0.38 0.42 0.44 0.44 0.42 0.37 0.30
0.47 0.47 0.52 0.53 0.55 0.53 0.51 0.49 0.46 0.54 0.83 1.08 1.30 1.66 1.81 1.29 1.08 0.88 0.72 0.58 0.49 0.42 0.37 0.34 0.35 0.37 0.34 0.28 0.26 0.28 0.29 0.29 0.32 0.33 0.35 0.41 0.47 0.50 0.50 0.61 0.68 0.70 0.66 0.74 0.87 0.96 0.86 0.54 0.49 0.39 0.35 0.47 0.39 0.41 0.49 0.49 0.49 0.50 0.52 0.52 0.50 0.39 0.35
0.55 0.56 0.59 0.61 0.70 0.67 0.66 0.56 0.54 0.74 1.05 1.20 1.41 1.69 2.11 1.52 1.29 1.02 0.78 0.60 0.51 0.48 0.43 0.38 0.36 0.35 0.33 0.29 0.29 0.29 0.29 0.32 0.34 0.35 0.39 0.40 0.39 0.37 0.35 0.34 0.34 0.41 0.56 0.62 0.57 0.62 0.64 0.53 0.43 0.38 0.32 0.30 0.38 0.55 0.59 0.54 0.53 0.50 0.54 0.58 0.54 0.54 0.51
0.49 0.51 0.52 0.52 0.56 0.62 0.60 0.48 0.53 0.79 1.06 1.22 1.48 1.93 1.75 1.60 1.24 0.98 0.78 0.62 0.53 0.48 0.43 0.38 0.39 0.42 0.40 0.35 0.32 0.30 0.49 0.42 0.41 0.48 0.51 0.46 0.37 0.32 0.28 0.27 0.26 0.40 0.50 0.42 0.52 0.55 0.52 0.49 0.45 0.55 0.54 0.56 0.59 0.54 0.53 0.59 0.66 0.70 0.80 0.89 0.92 0.77 0.52
0.39 0.41 0.47 0.48 0.49 0.51 0.46 0.43 0.46 0.65 0.95 1.10 1.38 2.04 2.04 1.68 1.21 0.91 0.73 0.58 0.50 0.46 0.43 0.38 0.38 0.40 0.42 0.37 0.33 0.32 0.57 0.72 0.76 0.74 0.71 0.64 0.52 0.40 0.35 0.30 0.21 0.42 0.84 1.28 1.60 1.80 1.50 1.32 1.31 1.38 1.56 1.53 1.48 0.99 0.95 1.04 1.16 1.04 0.79 0.83 0.87 0.65 0.42
0.41 0.41 0.43 0.46 0.47 0.46 0.48 0.43 0.40 0.54 0.76 0.95 1.27 1.66 1.61 1.47 1.28 0.95 0.75 0.65 0.56 0.51 0.48 0.40 0.42 0.41 0.41 0.40 0.33 0.48 0.71 0.96 0.97 1.15 0.94 0.78 0.69 0.58 0.48 0.33 0.21 0.18 0.23 0.65 1.17 1.47 1.54 1.68 1.45 1.37 1.38 1.60 1.57 1.44 0.93 1.10 1.31 0.93 0.60 0.66 0.64 0.60 0.37
0.41 0.39 0.40 0.41 0.42 0.44 0.48 0.46 0.41 0.45 0.69 0.95 1.33 1.50 1.46 1.34 1.19 1.03 0.82 0.74 0.67 0.56 0.46 0.39 0.36 0.42 0.48 0.44 0.43 0.76 0.99 1.43 1.18 1.19 0.93 0.66 0.64 0.66 0.57 0.37 0.25 0.21 0.23 0.25 0.32 0.42 0.51 0.63 0.83 0.78 0.78 0.67 0.77 0.90 1.04 0.94 0.94 0.77 0.71 0.73 0.60 0.51 0.46
0.33 0.34 0.36 0.38 0.45 0.47 0.46 0.46 0.43 0.47 0.60 0.96 1.28 1.34 1.22 1.12 1.08 1.05 0.94 0.85 0.73 0.72 0.63 0.50 0.44 0.39 0.43 0.70 0.97 0.95 1.32 1.46 1.96 1.31 1.16 0.88 0.84 0.75 0.53 0.29 0.23 0.26 0.28 0.29 0.28 0.28 0.26 0.32 0.38 0.50 0.63 0.64 0.58 0.53 0.60 0.80 0.66 0.69 0.71 0.68 0.60 0.48 0.44
0.33 0.38 0.42 0.41 0.41 0.45 0.46 0.46 0.43 0.38 0.52 0.90 1.04 1.02 1.29 1.05 0.98 0.85 0.81 0.80 0.78 0.67 0.58 0.53 0.46 0.42 0.38 0.47 0.73 0.96 1.29 1.49 1.80 1.70 1.18 1.14 1.00 0.69 0.47 0.42 0.47 0.42 0.34 0.37 0.31 0.28 0.27 0.28 0.32 0.43 0.53 0.63 0.57 0.53 0.53 0.65 0.48 0.51 0.46 0.58 0.65 0.60 0.51
0.41 0.40 0.33 0.31 0.35 0.41 0.42 0.40 0.38 0.42 0.47 0.71 0.93 1.02 1.22 1.08 0.95 0.78 0.84 0.87 0.68 0.53 0.46 0.40 0.40 0.41 0.41 0.45 0.66 1.04 1.57 1.63 1.75 1.87 1.29 1.16 1.38 1.39 1.18 0.64 0.54 0.46 0.44 0.39 0.37 0.34 0.32 0.31 0.33 0.35 0.40 0.53 0.56 0.51 0.62 0.54 0.47 0.39 0.34 0.31 0.35 0.43 0.49
0.40 0.36 0.33 0.32 0.37 0.38 0.37 0.36 0.35 0.45 0.40 0.48 0.75 0.91 1.07 1.14 1.11 1.06 0.81 0.78 0.69 0.53 0.42 0.37 0.38 0.37 0.43 0.57 1.06 1.39 1.64 1.72 1.90 1.59 1.48 1.67 1.52 1.41 1.15 1.01 0.93 0.76 0.65 0.53 0.44 0.39 0.42 0.36 0.31 0.34 0.33 0.33 0.43 0.43 0.37 0.42 0.41 0.39 0.36 0.36 0.30 0.27 0.28
0.39 0.32 0.33 0.36 0.37 0.36 0.34 0.33 0.38 0.39 0.33 0.36 0.51 0.79 1.05 1.06 1.10 1.02 0.79 0.72 0.61 0.52 0.47 0.43 0.41 0.46 0.63 0.97 1.02 1.16 1.41 1.62 1.44 1.37 1.55 1.68 1.48 1.06 0.99 1.04 1.10 1.04 0.91 0.72 0.56 0.49 0.40 0.34 0.25 0.25 0.25 0.26 0.24 0.34 0.40 0.40 0.42 0.37 0.36 0.34 0.29 0.24 0.23
0.31 0.33 0.33 0.34 0.34 0.37 0.36 0.36 0.37 0.32 0.32 0.33 0.37 0.50 0.69 0.79 0.87 0.72 0.66 0.62 0.52 0.50 0.49 0.47 0.57 0.70 0.80 0.91 1.02 1.07 0.99 1.02 0.93 0.95 1.14 1.02 1.02 1.06 0.99 1.05 0.96 0.86 0.81 0.87 0.78 0.58 0.40 0.26 0.21 0.20 0.20 0.20 0.24 0.28 0.40 0.46 0.48 0.47 0.39 0.37 0.34 0.31 0.23
0.34 0.32 0.31 0.32 0.31 0.36 0.38 0.41 0.35 0.30 0.32 0.36 0.38 0.41 0.49 0.59 0.55 0.55 0.50 0.55 0.49 0.40 0.37 0.40 0.55 0.44 0.46 0.51 0.58 0.67 0.78 0.99 0.74 0.65 0.63 0.75 0.86 0.84 0.94 0.98 0.87 0.69 0.65 0.64 0.53 0.47 0.42 0.32 0.24 0.25 0.26 0.22 0.24 0.32 0.39 0.46 0.52 0.58 0.53 0.47 0.48 0.45 0.41
0.36 0.37 0.37 0.38 0.36 0.39 0.39 0.41 0.32 0.31 0.34 0.42 0.49 0.50 0.51 0.54 0.50 0.52 0.44 0.43 0.50 0.46 0.39 0.37 0.40 0.41 0.43 0.45 0.48 0.58 0.68 0.62 0.52 0.55 0.72 0.62 0.57 0.77 0.87 1.11 0.78 0.60 0.57 0.48 0.41 0.39 0.33 0.31 0.36 0.31 0.38 0.40 0.36 0.36 0.34 0.35 0.39 0.48 0.49 0.45 0.43 0.41 0.39
0.54 0.58 0.60 0.61 0.53 0.53 0.46 0.39 0.33 0.33 0.43 0.60 0.63 0.63 0.57 0.54 0.52 0.59 0.59 0.43 0.43 0.43 0.40 0.42 0.44 0.47 0.46 0.57 0.61 0.62 0.62 0.59 0.56 0.49 0.44 0.45 0.50 0.58 0.65 0.75 0.75 0.70 0.68 0.53 0.52 0.54 0.44 0.46 0.46 0.49 0.46 0.41 0.37 0.30 0.27 0.29 0.37 0.40 0.48 0.53 0.51 0.61 0.55
0.96 0.87 0.87 0.73 0.70 0.77 0.67 0.54 0.53 0.50 0.57 0.67 0.70 0.72 0.69 0.69 0.65 0.60 0.57 0.45 0.43 0.47 0.47 0.44 0.45 0.46 0.46 0.44 0.45 0.47 0.48 0.46 0.42 0.39 0.39 0.47 0.50 0.47 0.48 0.50 0.64 0.71 0.61 0.48 0.52 0.60 0.58 0.59 0.57 0.50 0.42 0.43 0.43 0.34 0.28 0.29 0.37 0.41 0.42 0.52 0.61 0.66 0.54
1.21 1.16 1.08 0.94 0.72 0.74 0.85 0.78 0.65 0.60 0.82 0.90 0.94 1.07 0.88 0.81 0.89 0.78 0.63 0.52 0.47 0.45 0.45 0.42 0.39 0.38 0.37 0.36 0.34 0.35 0.35 0.34 0.34 0.34 0.34 0.38 0.42 0.41 0.43 0.44 0.49 0.53 0.49 0.45 0.54 0.51 0.55 0.52 0.50 0.44 0.43 0.43 0.43 0.39 0.32 0.31 0.38 0.45 0.47 0.56 0.68 0.67 0.58
1.15 1.21 0.99 0.92 0.98 0.84 0.61 0.57 0.52 0.53 0.80 0.93 1.15 1.17 1.03 1.09 0.99 0.92 0.81 0.64 0.57 0.51 0.43 0.40 0.35 0.35 0.32 0.30 0.29 0.30 0.30 0.30 0.31 0.30 0.30 0.32 0.34 0.35 0.38 0.41 0.43 0.48 0.47 0.47 0.50 0.54 0.58 0.53 0.50 0.45 0.38 0.37 0.34 0.34 0.38 0.43 0.48 0.45 0.52 0.56 0.55 0.55 0.49
0.92 1.02 1.12 0.93 0.98 1.09 0.87 0.71 0.66 0.64 0.93 1.09 1.29 1.28 1.08 1.05 1.09 1.01 0.86 0.68 0.67 0.58 0.46 0.38 0.33 0.33 0.32 0.29 0.28 0.27 0.26 0.29 0.32 0.32 0.33 0.31 0.28 0.26 0.26 0.30 0.37 0.43 0.45 0.47 0.49 0.49 0.53 0.57 0.56 0.52 0.44 0.37 0.33 0.32 0.34 0.41 0.52 0.58 0.69 0.64 0.56 0.49 0.43
0.58 0.66 0.80 0.85 1.01 1.12 1.07 0.83 0.78 0.79 0.98 1.08 1.18 1.11 0.89 0.87 0.85 0.72 0.67 0.58 0.48 0.43 0.41 0.37 0.35 0.34 0.33 0.31 0.29 0.29 0.29 0.32 0.34 0.29 0.28 0.28 0.28 0.26 0.24 0.24 0.25 0.31 0.38 0.42 0.45 0.47 0.49 0.59 0.52 0.56 0.53 0.50 0.42 0.39 0.38 0.34 0.36 0.39 0.42 0.50 0.57 0.52 0.45
0.43 0.41 0.44 0.46 0.60 0.73 0.77 0.68 0.66 0.66 0.67 0.76 0.86 0.84 0.85 0.86 0.74 0.65 0.65 0.48 0.42 0.39 0.38 0.35 0.33 0.33 0.34 0.34 0.33 0.33 0.32 0.33 0.35 0.29 0.26 0.23 0.21 0.22 0.22 0.20 0.22 0.26 0.31 0.34 0.37 0.41 0.40 0.43 0.46 0.53 0.55 0.58 0.51 0.44 0.38 0.38 0.35 0.34 0.41 0.48 0.45 0.41 0.40
0.34 0.31 0.35 0.44 0.46 0.58 0.63 0.53 0.50 0.59 0.69 0.78 0.79 0.78 0.90 0.73 0.65 0.67 0.54 0.39 0.32 0.33 0.33 0.33 0.31 0.30 0.28 0.28 0.29 0.31 0.32 0.32 0.32 0.28 0.27 0.25 0.22 0.20 0.20 0.23 0.22 0.22 0.23 0.25 0.29 0.32 0.35 0.37 0.42 0.46 0.47 0.48 0.48 0.47 0.47 0.42 0.39 0.39 0.37 0.38 0.41 0.37 0.34
0.37 0.33 0.32 0.40 0.39 0.43 0.56 0.57 0.51 0.54 0.69 0.87 0.86 0.84 0.74 0.66 0.55 0.44 0.40 0.35 0.33 0.32 0.33 0.32 0.33 0.33 0.32 0.34 0.35 0.36 0.34 0.32 0.32 0.32 0.31 0.29 0.27 0.24 0.23 0.24 0.24 0.23 0.22 0.21 0.22 0.25 0.28 0.32 0.37 0.41 0.46 0.46 0.43 0.40 0.38 0.35 0.33 0.33 0.34 0.34 0.34 0.38 0.36